| time (UTC) | temp C | wind direction | speed KPH | gust KPH | rain 1hr cm | rain 24hr cm | rain mn cm | humidity % | barometer mb |
| 20260504194605 | 22 | 270 | 3.2 | 14.5 | 0.00 | 0.00 | 0.00 | 36 | 1010.7 |
| 20260504194517 | 22 | 270 | 3.2 | 14.5 | 0.00 | 0.00 | 0.00 | 36 | 1010.7 |
| 20260504194107 | 22 | 270 | 4.8 | 14.5 | 0.00 | 0.00 | 0.00 | 36 | 1010.7 |
| 20260504194017 | 22 | 270 | 4.8 | 14.5 | 0.00 | 0.00 | 0.00 | 36 | 1010.7 |
| 20260504193630 | 22 | 270 | 8.0 | 16.1 | 0.00 | 0.00 | 0.00 | 35 | 1010.6 |
| 20260504193517 | 22 | 270 | 8.0 | 16.1 | 0.00 | 0.00 | 0.00 | 35 | 1010.6 |
| 20260504193018 | 22 | 248 | 4.8 | 12.9 | 0.00 | 0.00 | 0.00 | 36 | 1010.7 |
| 20260504192517 | 22 | 270 | 8.0 | 17.7 | 0.00 | 0.00 | 0.00 | 36 | 1010.7 |
| 20260504192121 | 22 | 248 | 6.4 | 16.1 | 0.00 | 0.00 | 0.00 | 37 | 1010.8 |
| 20260504192017 | 22 | 248 | 6.4 | 16.1 | 0.00 | 0.00 | 0.00 | 37 | 1010.8 |
| 20260504191559 | 22 | 248 | 8.0 | 17.7 | 0.00 | 0.00 | 0.00 | 36 | 1010.8 |
| 20260504191517 | 22 | 248 | 8.0 | 17.7 | 0.00 | 0.00 | 0.00 | 36 | 1010.8 |
| 20260504191117 | 22 | 270 | 6.4 | 14.5 | 0.00 | 0.00 | 0.00 | 36 | 1010.9 |
| 20260504191017 | 22 | 270 | 6.4 | 14.5 | 0.00 | 0.00 | 0.00 | 36 | 1010.9 |
| 20260504190517 | 22 | 270 | 4.8 | 12.9 | 0.00 | 0.00 | 0.00 | 36 | 1011.1 |
| 20260504190017 | 21 | 248 | 4.8 | 12.9 | 0.00 | 0.00 | 0.00 | 38 | 1011.1 |
| 20260504185558 | 21 | 270 | 4.8 | 17.7 | 0.00 | 0.00 | 0.00 | 36 | 1011.3 |
| 20260504185517 | 21 | 270 | 4.8 | 17.7 | 0.00 | 0.00 | 0.00 | 36 | 1011.3 |
| 20260504185114 | 21 | 270 | 4.8 | 12.9 | 0.00 | 0.00 | 0.00 | 37 | 1011.5 |
| 20260504185017 | 21 | 270 | 4.8 | 12.9 | 0.00 | 0.00 | 0.00 | 37 | 1011.5 |
| 20260504184517 | 21 | 248 | 6.4 | 14.5 | 0.00 | 0.00 | 0.00 | 38 | 1011.4 |
| 20260504184119 | 21 | 248 | 8.0 | 20.9 | 0.00 | 0.00 | 0.00 | 37 | 1011.4 |
| 20260504184017 | 21 | 248 | 8.0 | 20.9 | 0.00 | 0.00 | 0.00 | 37 | 1011.4 |
| 20260504183637 | 21 | 270 | 4.8 | 12.9 | 0.00 | 0.00 | 0.00 | 39 | 1011.5 |
| 20260504183517 | 21 | 270 | 4.8 | 12.9 | 0.00 | 0.00 | 0.00 | 39 | 1011.5 |
| 20260504183150 | 21 | 270 | 6.4 | 17.7 | 0.00 | 0.00 | 0.00 | 37 | 1011.7 |
| 20260504183017 | 21 | 270 | 6.4 | 17.7 | 0.00 | 0.00 | 0.00 | 37 | 1011.7 |
| 20260504182517 | 21 | 248 | 6.4 | 20.9 | 0.00 | 0.00 | 0.00 | 38 | 1011.7 |
| 20260504182017 | 21 | 270 | 4.8 | 9.7 | 0.00 | 0.00 | 0.00 | 38 | 1011.8 |
| 20260504181603 | 21 | 248 | 4.8 | 12.9 | 0.00 | 0.00 | 0.00 | 40 | 1011.7 |
| 20260504181517 | 21 | 248 | 4.8 | 12.9 | 0.00 | 0.00 | 0.00 | 40 | 1011.7 |
| 20260504181017 | 21 | 248 | 6.4 | 19.3 | 0.00 | 0.00 | 0.00 | 38 | 1011.9 |
| 20260504180605 | 21 | 270 | 8.0 | 20.9 | 0.00 | 0.00 | 0.00 | 39 | 1011.9 |
| 20260504180517 | 21 | 270 | 8.0 | 20.9 | 0.00 | 0.00 | 0.00 | 39 | 1011.9 |
| 20260504180122 | 21 | 248 | 6.4 | 14.5 | 0.00 | 0.00 | 0.00 | 37 | 1012.0 |
| 20260504180017 | 21 | 248 | 6.4 | 14.5 | 0.00 | 0.00 | 0.00 | 37 | 1012.0 |
| 20260504175608 | 21 | 270 | 3.2 | 12.9 | 0.00 | 0.00 | 0.00 | 37 | 1012.3 |
| 20260504175517 | 21 | 270 | 3.2 | 12.9 | 0.00 | 0.00 | 0.00 | 37 | 1012.3 |
| 20260504175145 | 21 | 248 | 6.4 | 17.7 | 0.00 | 0.00 | 0.00 | 39 | 1012.1 |
| 20260504175017 | 21 | 248 | 6.4 | 17.7 | 0.00 | 0.00 | 0.00 | 39 | 1012.1 |
| 20260504174517 | 21 | 270 | 4.8 | 12.9 | 0.00 | 0.00 | 0.00 | 38 | 1012.1 |
| 20260504174017 | 21 | 315 | 4.8 | 17.7 | 0.00 | 0.00 | 0.00 | 40 | 1012.3 |
| 20260504173634 | 21 | 270 | 6.4 | 14.5 | 0.00 | 0.00 | 0.00 | 38 | 1012.2 |
| 20260504173517 | 21 | 270 | 6.4 | 14.5 | 0.00 | 0.00 | 0.00 | 38 | 1012.2 |
| 20260504173017 | 21 | 270 | 6.4 | 14.5 | 0.00 | 0.00 | 0.00 | 38 | 1012.4 |
| 20260504172728 | 21 | 293 | 4.8 | 19.3 | 0.00 | 0.00 | 0.00 | 41 | 1012.2 |
| 20260504172517 | 21 | 293 | 4.8 | 19.3 | 0.00 | 0.00 | 0.00 | 41 | 1012.2 |
| 20260504172017 | 20 | 270 | 4.8 | 12.9 | 0.00 | 0.00 | 0.00 | 39 | 1012.5 |
| 20260504171602 | 20 | 248 | 6.4 | 20.9 | 0.00 | 0.00 | 0.00 | 39 | 1012.3 |
| 20260504171517 | 20 | 248 | 6.4 | 20.9 | 0.00 | 0.00 | 0.00 | 39 | 1012.3 |
| 20260504171121 | 20 | 270 | 6.4 | 20.9 | 0.00 | 0.00 | 0.00 | 40 | 1012.4 |
| 20260504171017 | 20 | 270 | 6.4 | 20.9 | 0.00 | 0.00 | 0.00 | 40 | 1012.4 |
| 20260504170611 | 20 | 270 | 9.7 | 20.9 | 0.00 | 0.00 | 0.00 | 38 | 1012.6 |
| 20260504170517 | 20 | 270 | 9.7 | 20.9 | 0.00 | 0.00 | 0.00 | 38 | 1012.6 |
| 20260504170104 | 20 | 270 | 6.4 | 24.1 | 0.00 | 0.00 | 0.00 | 39 | 1012.6 |
| 20260504160148 | 19 | 270 | 6.4 | 19.3 | 0.00 | 0.00 | 0.00 | 43 | 1013.7 |
| 20260504151124 | 18 | 270 | 4.8 | 11.3 | 0.00 | 0.00 | 0.00 | 46 | 1013.8 |
| 20260504151017 | 18 | 270 | 4.8 | 11.3 | 0.00 | 0.00 | 0.00 | 46 | 1013.8 |
| 20260504150914 | 18 | 270 | 4.8 | 12.9 | 0.00 | 0.00 | 0.00 | 49 | 1013.8 |
| 20260504150517 | 18 | 270 | 4.8 | 12.9 | 0.00 | 0.00 | 0.00 | 49 | 1013.8 |
| 20260504141017 | 16 | 248 | 6.4 | 17.7 | 0.00 | 0.00 | 0.00 | 52 | 1014.3 |
| 20260504140517 | 16 | 270 | 4.8 | 11.3 | 0.00 | 0.00 | 0.00 | 52 | 1014.3 |
| 20260504130517 | 15 | 270 | 3.2 | 11.3 | 0.00 | 0.00 | 0.00 | 61 | 1014.9 |
| 20260504130122 | 14 | 270 | 4.8 | 14.5 | 0.00 | 0.00 | 0.00 | 62 | 1015.0 |
| 20260504110517 | 8 | 270 | 3.2 | 11.3 | 0.00 | 0.00 | 0.00 | 76 | 1015.4 |
| 20260504100516 | 7 | 248 | 3.2 | 9.7 | 0.00 | 0.00 | 0.00 | 76 | 1015.2 |
| 20260504100149 | 7 | 248 | 1.6 | 6.4 | 0.00 | 0.00 | 0.00 | 76 | 1015.3 |
| 20260504081516 | 8 | 248 | 4.8 | 8.0 | 0.00 | 0.00 | 0.00 | 59 | 1015.0 |
| 20260504081016 | 8 | 248 | 3.2 | 9.7 | 0.00 | 0.00 | 0.00 | 58 | 1014.8 |
| 20260504080516 | 8 | 248 | 3.2 | 8.0 | 0.00 | 0.00 | 0.00 | 58 | 1014.8 |
| 20260504050516 | 9 | 248 | 1.6 | 11.3 | 0.00 | 0.00 | 0.00 | 55 | 1014.5 |
| 20260504050016 | 9 | 248 | 1.6 | 4.8 | 0.00 | 0.00 | 0.00 | 56 | 1014.5 |
| 20260504045516 | 9 | 248 | 1.6 | 4.8 | 0.00 | 0.00 | 0.00 | 55 | 1014.4 |
| 20260504045016 | 9 | 248 | 1.6 | 4.8 | 0.00 | 0.00 | 0.00 | 55 | 1014.3 |
| 20260504044516 | 9 | 248 | 1.6 | 3.2 | 0.00 | 0.00 | 0.00 | 55 | 1014.3 |
| 20260504044016 | 9 | 248 | 1.6 | 4.8 | 0.00 | 0.00 | 0.00 | 55 | 1014.4 |
| 20260504043621 | 10 | 248 | 1.6 | 4.8 | 0.00 | 0.00 | 0.00 | 55 | 1014.4 |
| 20260504043516 | 10 | 248 | 1.6 | 4.8 | 0.00 | 0.00 | 0.00 | 55 | 1014.4 |
| 20260504043016 | 10 | 248 | 1.6 | 3.2 | 0.00 | 0.00 | 0.00 | 55 | 1014.2 |
| 20260504042709 | 10 | 248 | 1.6 | 1.6 | 0.00 | 0.00 | 0.00 | 54 | 1014.2 |
| 20260504042516 | 10 | 248 | 1.6 | 1.6 | 0.00 | 0.00 | 0.00 | 54 | 1014.2 |
| 20260504042016 | 10 | 248 | 1.6 | 3.2 | 0.00 | 0.00 | 0.00 | 54 | 1014.1 |
| 20260504041516 | 10 | 0.0 | 1.6 | 0.00 | 0.00 | 0.00 | 54 | 1014.1 | |
| 20260504041016 | 10 | 248 | 1.6 | 3.2 | 0.00 | 0.00 | 0.00 | 54 | 1014.1 |
| 20260504040516 | 10 | 248 | 1.6 | 3.2 | 0.00 | 0.00 | 0.00 | 54 | 1014.1 |
| 20260504040149 | 10 | 248 | 1.6 | 3.2 | 0.00 | 0.00 | 0.00 | 53 | 1014.1 |
| 20260504040037 | 10 | 248 | 1.6 | 4.8 | 0.00 | 0.00 | 0.00 | 53 | 1014.0 |
| 20260504035516 | 10 | 248 | 1.6 | 4.8 | 0.00 | 0.00 | 0.00 | 53 | 1014.0 |
| 20260504035016 | 10 | 248 | 1.6 | 3.2 | 0.00 | 0.00 | 0.00 | 53 | 1013.9 |
| 20260504034516 | 10 | 248 | 1.6 | 4.8 | 0.00 | 0.00 | 0.00 | 53 | 1013.9 |
| 20260504034016 | 10 | 248 | 1.6 | 4.8 | 0.00 | 0.00 | 0.00 | 53 | 1013.9 |
| 20260504033516 | 10 | 0.0 | 3.2 | 0.00 | 0.00 | 0.00 | 52 | 1013.9 | |
| 20260504033016 | 10 | 248 | 1.6 | 4.8 | 0.00 | 0.00 | 0.00 | 52 | 1014.0 |
| 20260504032516 | 10 | 248 | 3.2 | 6.4 | 0.00 | 0.00 | 0.00 | 52 | 1014.0 |
| 20260504032016 | 10 | 248 | 1.6 | 6.4 | 0.00 | 0.00 | 0.00 | 52 | 1013.9 |
| 20260504031518 | 10 | 248 | 1.6 | 6.4 | 0.00 | 0.00 | 0.00 | 52 | 1013.8 |
| 20260504031018 | 10 | 248 | 1.6 | 3.2 | 0.00 | 0.00 | 0.00 | 52 | 1013.8 |
| 20260504030518 | 10 | 248 | 1.6 | 3.2 | 0.00 | 0.00 | 0.00 | 51 | 1013.7 |
| 20260504030018 | 10 | 248 | 1.6 | 3.2 | 0.00 | 0.00 | 0.00 | 51 | 1013.7 |
| 20260504025518 | 11 | 248 | 1.6 | 3.2 | 0.00 | 0.00 | 0.00 | 50 | 1013.8 |
| 20260504025018 | 11 | 248 | 1.6 | 3.2 | 0.00 | 0.00 | 0.00 | 50 | 1013.8 |
| 20260504024518 | 11 | 248 | 1.6 | 4.8 | 0.00 | 0.00 | 0.00 | 49 | 1013.7 |
| 20260504024018 | 11 | 248 | 1.6 | 4.8 | 0.00 | 0.00 | 0.00 | 49 | 1013.8 |
| 20260504023518 | 11 | 248 | 1.6 | 6.4 | 0.00 | 0.00 | 0.00 | 49 | 1013.9 |
| 20260504023018 | 11 | 248 | 1.6 | 4.8 | 0.00 | 0.00 | 0.00 | 49 | 1013.8 |
| 20260504022906 | 11 | 248 | 1.6 | 4.8 | 0.00 | 0.00 | 0.00 | 49 | 1013.8 |
| 20260504022518 | 11 | 248 | 1.6 | 4.8 | 0.00 | 0.00 | 0.00 | 49 | 1013.8 |
| 20260504022018 | 11 | 248 | 1.6 | 4.8 | 0.00 | 0.00 | 0.00 | 48 | 1013.7 |
| 20260504021518 | 11 | 248 | 1.6 | 3.2 | 0.00 | 0.00 | 0.00 | 48 | 1013.7 |
| 20260504021018 | 11 | 248 | 1.6 | 3.2 | 0.00 | 0.00 | 0.00 | 47 | 1013.7 |
| 20260504020518 | 11 | 248 | 1.6 | 3.2 | 0.00 | 0.00 | 0.00 | 47 | 1013.8 |
| 20260504020018 | 11 | 248 | 1.6 | 6.4 | 0.00 | 0.00 | 0.00 | 46 | 1013.8 |
| 20260504015518 | 11 | 248 | 1.6 | 4.8 | 0.00 | 0.00 | 0.00 | 46 | 1013.7 |
| 20260504015018 | 11 | 248 | 1.6 | 4.8 | 0.00 | 0.00 | 0.00 | 46 | 1013.7 |
| 20260504014518 | 11 | 248 | 1.6 | 6.4 | 0.00 | 0.00 | 0.00 | 46 | 1013.7 |
| 20260504014018 | 11 | 248 | 1.6 | 3.2 | 0.00 | 0.00 | 0.00 | 46 | 1013.6 |
| 20260504013518 | 12 | 248 | 1.6 | 4.8 | 0.00 | 0.00 | 0.00 | 45 | 1013.6 |
| 20260504013018 | 12 | 248 | 1.6 | 4.8 | 0.00 | 0.00 | 0.00 | 45 | 1013.6 |
| 20260504012517 | 12 | 248 | 1.6 | 4.8 | 0.00 | 0.00 | 0.00 | 44 | 1013.5 |
| 20260504012018 | 12 | 0.0 | 3.2 | 0.00 | 0.00 | 0.00 | 44 | 1013.4 | |
| 20260504011518 | 12 | 248 | 1.6 | 3.2 | 0.00 | 0.00 | 0.00 | 44 | 1013.3 |
| 20260504011018 | 12 | 248 | 1.6 | 3.2 | 0.00 | 0.00 | 0.00 | 44 | 1013.2 |
| 20260504010517 | 12 | 0.0 | 3.2 | 0.00 | 0.00 | 0.00 | 43 | 1013.1 | |
| 20260504010018 | 12 | 0.0 | 3.2 | 0.00 | 0.00 | 0.00 | 43 | 1013.2 | |
| 20260504005518 | 12 | 0.0 | 1.6 | 0.00 | 0.00 | 0.00 | 43 | 1013.0 | |
| 20260504005018 | 12 | 0.0 | 1.6 | 0.00 | 0.00 | 0.00 | 43 | 1013.1 | |
| 20260504004518 | 12 | 0.0 | 3.2 | 0.00 | 0.00 | 0.00 | 43 | 1012.9 | |
| 20260504004018 | 12 | 0.0 | 1.6 | 0.00 | 0.00 | 0.00 | 42 | 1012.9 | |
| 20260504003518 | 12 | 0.0 | 1.6 | 0.00 | 0.00 | 0.00 | 42 | 1012.9 | |
| 20260504003017 | 12 | 0.0 | 1.6 | 0.00 | 0.00 | 0.00 | 41 | 1012.8 | |
| 20260504002517 | 12 | 0.0 | 1.6 | 0.00 | 0.00 | 0.00 | 41 | 1012.7 | |
| 20260504002017 | 13 | 0.0 | 1.6 | 0.00 | 0.00 | 0.00 | 41 | 1012.6 | |
| 20260504001518 | 13 | 0.0 | 3.2 | 0.00 | 0.00 | 0.00 | 40 | 1012.6 | |
| 20260504001018 | 13 | 0.0 | 3.2 | 0.00 | 0.00 | 0.00 | 39 | 1012.6 | |
| 20260504000518 | 13 | 0.0 | 1.6 | 0.00 | 0.00 | 0.00 | 39 | 1012.6 | |
| 20260504000018 | 13 | 0.0 | 0.0 | 0.00 | 0.00 | 0.00 | 38 | 1012.5 | |
| 20260503235820 | 14 | 0.0 | 1.6 | 0.00 | 0.00 | 0.00 | 37 | 1012.4 | |
| 20260503235518 | 14 | 0.0 | 1.6 | 0.00 | 0.00 | 0.00 | 37 | 1012.4 | |
| 20260503235017 | 14 | 0.0 | 3.2 | 0.00 | 0.00 | 0.00 | 37 | 1012.3 | |
| 20260503234518 | 15 | 0.0 | 3.2 | 0.00 | 0.00 | 0.00 | 36 | 1012.2 | |
| 20260503234017 | 15 | 0.0 | 3.2 | 0.00 | 0.00 | 0.00 | 36 | 1012.3 | |
| 20260503233517 | 15 | 315 | 1.6 | 4.8 | 0.00 | 0.00 | 0.00 | 35 | 1012.3 |
| 20260503233018 | 15 | 315 | 1.6 | 3.2 | 0.00 | 0.00 | 0.00 | 34 | |
| 20260503232517 | 15 | 315 | 3.2 | 8.0 | 0.00 | 0.00 | 0.00 | 34 | |
| 20260503232018 | 15 | 315 | 3.2 | 8.0 | 0.00 | 0.00 | 0.00 | 34 | |
| 20260503231518 | 15 | 315 | 1.6 | 6.4 | 0.00 | 0.00 | 0.00 | 33 | |
| 20260503231018 | 15 | 315 | 1.6 | 6.4 | 0.00 | 0.00 | 0.00 | 33 | |
| 20260503230517 | 15 | 315 | 1.6 | 4.8 | 0.00 | 0.00 | 0.00 | 33 | |
| 20260503230018 | 15 | 338 | 3.2 | 8.0 | 0.00 | 0.00 | 0.00 | 32 | |
| 20260503225518 | 16 | 315 | 3.2 | 9.7 | 0.00 | 0.00 | 0.00 | 32 | |
| 20260503225018 | 15 | 315 | 3.2 | 11.3 | 0.00 | 0.00 | 0.00 | 32 | |
| 20260503224517 | 15 | 315 | 4.8 | 9.7 | 0.00 | 0.00 | 0.00 | 32 | |
| 20260503224017 | 15 | 315 | 4.8 | 9.7 | 0.00 | 0.00 | 0.00 | 33 | |
| 20260503223518 | 15 | 315 | 4.8 | 11.3 | 0.00 | 0.00 | 0.00 | 33 | |
| 20260503223018 | 15 | 315 | 3.2 | 9.7 | 0.00 | 0.00 | 0.00 | 32 | 1011.9 |
| 20260503222517 | 15 | 338 | 4.8 | 8.0 | 0.00 | 0.00 | 0.00 | 32 | 1011.9 |
| 20260503222346 | 15 | 315 | 4.8 | 9.7 | 0.00 | 0.00 | 0.00 | 32 | 1011.9 |
| 20260503222017 | 15 | 315 | 4.8 | 9.7 | 0.00 | 0.00 | 0.00 | 32 | 1011.9 |
| 20260503221520 | 15 | 315 | 4.8 | 16.1 | 0.00 | 0.00 | 0.00 | 33 | 1011.8 |
| 20260503221517 | 15 | 315 | 4.8 | 12.9 | 0.00 | 0.00 | 0.00 | 32 | 1011.9 |
| 20260503221017 | 15 | 315 | 4.8 | 16.1 | 0.00 | 0.00 | 0.00 | 33 | 1011.8 |
| 20260503220518 | 15 | 315 | 6.4 | 12.9 | 0.00 | 0.00 | 0.00 | 33 | 1012.0 |
| 20260503220149 | 15 | 338 | 3.2 | 9.7 | 0.00 | 0.00 | 0.00 | 33 | 1012.0 |
| 20260503220032 | 15 | 315 | 4.8 | 14.5 | 0.00 | 0.00 | 0.00 | 33 | 1012.1 |
| 20260503215523 | 15 | 338 | 4.8 | 9.7 | 0.00 | 0.00 | 0.00 | 32 | 1012.1 |
| 20260503215517 | 15 | 315 | 4.8 | 14.5 | 0.00 | 0.00 | 0.00 | 33 | 1012.1 |
| 20260503215017 | 15 | 338 | 4.8 | 9.7 | 0.00 | 0.00 | 0.00 | 32 | 1012.1 |
| 20260503215014 | 15 | 315 | 3.2 | 12.9 | 0.00 | 0.00 | 0.00 | 32 | 1012.1 |
| 20260503214517 | 15 | 315 | 3.2 | 12.9 | 0.00 | 0.00 | 0.00 | 32 | 1012.1 |
| 20260503214451 | 15 | 315 | 6.4 | 17.7 | 0.00 | 0.00 | 0.00 | 32 | 1012.1 |
| 20260503214029 | 15 | 315 | 4.8 | 11.3 | 0.00 | 0.00 | 0.00 | 33 | 1012.2 |
| 20260503214017 | 15 | 315 | 6.4 | 17.7 | 0.00 | 0.00 | 0.00 | 32 | 1012.1 |
| 20260503213518 | 15 | 315 | 4.8 | 11.3 | 0.00 | 0.00 | 0.00 | 33 | 1012.2 |
| 20260503213515 | 15 | 338 | 6.4 | 14.5 | 0.00 | 0.00 | 0.00 | 33 | 1012.0 |
| 20260503213018 | 15 | 338 | 6.4 | 14.5 | 0.00 | 0.00 | 0.00 | 33 | 1012.0 |
| 20260503212517 | 15 | 315 | 4.8 | 14.5 | 0.00 | 0.00 | 0.00 | 34 | 1012.1 |
| 20260503212017 | 15 | 315 | 8.0 | 17.7 | 0.00 | 0.00 | 0.00 | 32 | 1012.1 |
| 20260503211517 | 15 | 338 | 6.4 | 16.1 | 0.00 | 0.00 | 0.00 | 33 | 1012.0 |
| 20260503211018 | 15 | 315 | 6.4 | 12.9 | 0.00 | 0.00 | 0.00 | 33 | 1012.1 |
| 20260503210517 | 15 | 338 | 6.4 | 17.7 | 0.00 | 0.00 | 0.00 | 34 | 1012.3 |
| 20260503210017 | 15 | 338 | 6.4 | 16.1 | 0.00 | 0.00 | 0.00 | 34 | 1012.0 |
| 20260503205517 | 14 | 315 | 6.4 | 17.7 | 0.00 | 0.00 | 0.00 | 34 | 1012.1 |
| 20260503205017 | 14 | 315 | 6.4 | 16.1 | 0.00 | 0.00 | 0.00 | 34 | 1012.0 |
| 20260503204518 | 15 | 315 | 9.7 | 19.3 | 0.00 | 0.00 | 0.00 | 33 | 1012.1 |
| 20260503204017 | 15 | 315 | 8.0 | 17.7 | 0.00 | 0.00 | 0.00 | 33 | 1012.1 |
| 20260503203517 | 15 | 315 | 6.4 | 17.7 | 0.00 | 0.00 | 0.00 | 34 | 1012.0 |
| 20260503203017 | 14 | 315 | 8.0 | 16.1 | 0.00 | 0.00 | 0.00 | 34 | 1012.0 |
| 20260503202517 | 15 | 315 | 9.7 | 17.7 | 0.00 | 0.00 | 0.00 | 33 | 1012.1 |
| 20260503202017 | 15 | 315 | 6.4 | 17.7 | 0.00 | 0.00 | 0.00 | 35 | 1012.2 |
| 20260503201517 | 14 | 315 | 8.0 | 19.3 | 0.00 | 0.00 | 0.00 | 35 | 1012.0 |
| 20260503201017 | 14 | 315 | 4.8 | 17.7 | 0.00 | 0.00 | 0.00 | 33 | 1012.1 |
| 20260503200917 | 14 | 338 | 4.8 | 14.5 | 0.00 | 0.00 | 0.00 | 35 | 1012.2 |
| 20260503200517 | 14 | 338 | 4.8 | 14.5 | 0.00 | 0.00 | 0.00 | 35 | 1012.2 |
| 20260503200017 | 14 | 315 | 6.4 | 12.9 | 0.00 | 0.00 | 0.00 | 35 | 1012.1 |
| 20260503195730 | 14 | 315 | 6.4 | 14.5 | 0.00 | 0.00 | 0.00 | 34 | 1012.2 |
| 20260503195517 | 14 | 315 | 6.4 | 14.5 | 0.00 | 0.00 | 0.00 | 34 | 1012.2 |
| 20260503195218 | 14 | 315 | 6.4 | 11.3 | 0.00 | 0.00 | 0.00 | 34 | 1012.3 |
| 20260503195017 | 14 | 315 | 6.4 | 11.3 | 0.00 | 0.00 | 0.00 | 34 | 1012.3 |